[[{"header":{"parameterUnit":"m.s-1","parameterCategory":1,"la1":30.2991,"la2":30.254,"lo1":-89.0895,"lo2":-89.0444,"dy":0.0017,"dx":0.0017,"nx":28,"ny":28,"refTime":"2025-02-11T03:00:00:Z","depth":0,"parameterNumber":2,"parameterNumberName":"U-component_of_WINDS"},"data":[0,0,0,0,0,0,0,0,0,0,0,0,0,0,0,0,0,0,0,0,0,0,0,0,0,0,0,0,0,0,0,0,0,0,0,0,0,0,0,0,0,0,0,0,0,0,0,0,0,0,0,0,0,0,0,0,0,0,-0.7891,-0.7889,0,-0.7762,-0.7761,-0.7759,-0.7694,-0.7694,-0.7694,-0.7694,-0.7561,-0.7558,-0.7555,0,0,0,0,0,0,0,0,0,0,0,0,0,-0.8079,-0.8076,-0.7891,-0.7889,-0.7888,-0.7762,-0.7761,-0.7759,-0.7694,-0.7694,-0.7694,-0.7694,-0.7562,-0.7558,-0.7554,0,0,0,0,0,0,0,0,0,0,0,0,0,-0.7978,-0.8075,-0.7891,-0.784,-0.7834,-0.7763,-0.7761,-0.7758,-0.7694,-0.7694,-0.7694,-0.7694,-0.7564,-0.7559,-0.7554,-0.7523,0,0,-0.7538,-0.7535,0,0,0,0,0,0,0,0,-0.7984,-0.7972,-0.7849,-0.7844,-0.7837,-0.7744,-0.7778,-0.7679,-0.7694,-0.7747,-0.7694,-0.7694,-0.7622,-0.7612,-0.7588,-0.7516,-0.7511,-0.7537,-0.7534,-0.7532,-0.753,0,0,0,0,0,0,0,-0.7991,-0.7977,-0.784,-0.7848,-0.784,-0.7823,-0.7809,-0.7759,-0.7687,-0.7743,-0.7738,-0.7723,-0.7619,-0.7593,-0.7584,-0.7509,-0.7537,-0.7533,-0.7529,-0.7527,-0.7404,-0.7403,0,0,0,0,0,0,-0.8007,-0.7983,-0.7844,-0.7836,-0.7912,-0.782,-0.7804,-0.7774,-0.7687,-0.7674,-0.7723,-0.7721,-0.7602,-0.7591,-0.758,-0.7536,-0.7532,-0.7527,-0.7524,-0.7404,-0.7404,-0.7403,0,0,0,0,0,0,-0.8011,-0.7995,-0.7849,-0.7908,-0.7888,-0.7817,-0.7784,-0.7771,-0.7746,-0.7672,-0.7659,-0.7711,-0.7602,-0.7587,-0.7537,-0.7531,-0.7525,-0.752,-0.7404,-0.7404,-0.7403,-0.745,0,0,0,0,0,0,-0.8017,-0.7997,-0.7985,-0.7908,-0.7885,-0.7809,-0.7783,-0.7769,-0.7737,-0.7732,-0.7657,-0.7645,-0.7601,-0.7545,-0.7532,-0.7523,-0.7516,-0.7404,-0.7404,-0.7404,-0.7449,-0.7452,-0.7454,0,0,0,0,0,-0.8024,-0.8003,-0.7984,-0.7968,-0.7869,-0.7809,-0.7796,-0.7746,-0.7737,-0.7724,-0.7676,-0.7647,-0.7534,-0.7541,-0.7525,-0.7515,-0.7404,-0.7404,-0.7404,-0.7448,-0.7451,-0.7454,0,0,0,0,0,0,-0.8081,-0.7992,-0.797,-0.7925,-0.7875,-0.7798,-0.778,-0.7751,-0.7702,-0.77,-0.764,-0.7623,-0.7578,-0.7542,-0.7551,-0.748,-0.7466,-0.7463,-0.7505,-0.7508,-0.751,-0.7519,-0.7511,0,0,0,0,0,-0.8088,-0.8047,-0.7972,-0.7939,-0.7915,-0.7852,-0.7824,-0.779,-0.7736,-0.7714,-0.7663,-0.7611,-0.7564,-0.7534,-0.7486,-0.7444,-0.7426,-0.7429,-0.7432,-0.7434,-0.7432,-0.7405,-0.7405,-0.7402,-0.7402,-0.7402,0,0,-0.8103,-0.8049,-0.8027,-0.7949,-0.7906,-0.7865,-0.7835,-0.7792,-0.7761,-0.7708,-0.7657,-0.7618,-0.7556,-0.7509,-0.7486,-0.7477,-0.7429,-0.7434,-0.7436,-0.7432,-0.7405,-0.7405,-0.7405,-0.7402,-0.7402,-0.7402,0,0,-0.8108,-0.8064,-0.8031,-0.7989,-0.7924,-0.7882,-0.7875,-0.7802,-0.7774,-0.7722,-0.7681,-0.7642,-0.7562,-0.7519,-0.7487,-0.7476,-0.7446,-0.7462,-0.7475,-0.745,-0.745,-0.745,-0.7444,-0.7443,-0.746,-0.746,-0.746,0,-0.8134,-0.807,-0.8018,-0.7977,-0.7943,-0.7894,-0.7859,-0.7821,-0.7744,-0.7722,-0.7713,-0.7611,-0.7566,-0.7508,-0.7505,-0.7481,-0.7469,-0.747,-0.7454,-0.7453,-0.7452,-0.7447,-0.7445,-0.7462,-0.7462,-0.7461,-0.7461,0,-0.8105,-0.8061,-0.8042,-0.7969,-0.7933,-0.7896,-0.7837,-0.7807,-0.7776,-0.7735,-0.7683,-0.7627,-0.7567,-0.755,-0.752,-0.7488,-0.7484,-0.7466,-0.745,-0.7456,-0.7449,-0.7447,-0.7465,-0.7464,-0.7464,-0.7463,0,0,-0.8142,-0.804,-0.8034,-0.7999,-0.7924,-0.7889,-0.785,-0.7791,-0.7766,-0.7715,-0.7679,-0.7612,-0.7594,-0.7558,-0.7522,-0.75,-0.7493,-0.7484,-0.7481,-0.7486,-0.7453,-0.7466,-0.7464,-0.7473,-0.7473,-0.7472,-0.7457,0,-0.8135,-0.8061,-0.8013,-0.7958,-0.7916,-0.7868,-0.7833,-0.7783,-0.7744,-0.7702,-0.7659,-0.7612,-0.7593,-0.757,-0.7546,-0.7499,-0.7485,-0.7499,-0.7439,-0.7437,-0.7455,-0.7461,-0.7475,-0.7464,-0.7455,-0.7454,-0.7454,0,-0.8117,-0.8067,-0.8009,-0.7937,-0.7918,-0.7887,-0.7829,-0.779,-0.7732,-0.7705,-0.7664,-0.7627,-0.7583,-0.7572,-0.7509,-0.752,-0.7493,-0.7466,-0.7464,-0.7455,-0.7445,-0.7452,-0.7459,-0.7457,-0.7449,-0.745,-0.745,0,-0.8149,-0.8067,-0.802,-0.7993,-0.7909,-0.7888,-0.7852,-0.7794,-0.7762,-0.7711,-0.7689,-0.7633,-0.7603,-0.7561,-0.751,-0.7507,-0.7451,-0.7437,-0.7427,-0.7428,-0.7416,-0.7418,-0.7418,-0.7401,-0.7401,-0.7401,-0.7401,0,-0.8146,-0.8111,-0.8033,-0.8005,-0.7964,-0.7909,-0.787,-0.783,-0.7779,-0.7741,-0.7697,-0.7663,-0.7598,-0.7556,-0.7516,-0.7469,-0.7456,-0.7432,-0.7422,-0.7435,-0.7438,-0.7416,-0.7415,-0.74,-0.7401,-0.7401,-0.7401,0,-0.8173,-0.812,-0.8066,-0.7991,-0.7971,-0.7944,-0.788,-0.785,-0.7808,-0.7761,-0.7747,-0.7681,-0.7629,-0.7574,-0.7504,-0.7477,-0.7431,-0.7417,-0.7451,-0.7445,-0.7437,-0.7438,-0.7422,-0.7417,-0.7405,-0.7405,-0.7405,0,-0.8174,-0.8146,-0.8068,-0.804,-0.8005,-0.796,-0.7926,-0.787,-0.7837,-0.7769,-0.7747,-0.7691,-0.7644,-0.7562,-0.7508,-0.7454,-0.7437,-0.7436,-0.7429,-0.7443,-0.7436,-0.7438,-0.7434,-0.7438,-0.7438,-0.7439,-0.7439,0,-0.8181,-0.8156,-0.8109,-0.8053,-0.8014,-0.7967,-0.7918,-0.7897,-0.7832,-0.7797,-0.7743,-0.7706,-0.7633,-0.7578,-0.7517,-0.748,-0.7448,-0.7442,-0.7436,-0.7449,-0.7469,-0.7457,-0.7456,-0.7442,-0.7442,-0.7441,-0.7441,-0.7441,-0.8194,-0.8167,-0.8107,-0.8056,-0.8014,-0.7969,-0.7937,-0.7891,-0.7845,-0.7782,-0.7752,-0.7697,-0.7639,-0.7554,-0.7517,-0.7474,-0.7465,-0.7457,-0.7455,-0.7453,-0.7456,-0.7477,-0.7463,-0.7462,-0.7462,-0.7462,-0.7462,0,-0.8197,-0.8156,-0.811,-0.8043,-0.8003,-0.7977,-0.7922,-0.789,-0.7843,-0.7792,-0.7746,-0.7683,-0.763,-0.7571,-0.7514,-0.7491,-0.7475,-0.7477,-0.7478,-0.747,-0.7468,-0.7478,-0.7491,-0.7491,-0.7491,-0.7491,-0.7491,-0.7491,-0.8194,-0.8146,-0.8114,-0.8044,-0.8003,-0.795,-0.792,-0.7879,-0.7837,-0.7769,-0.7725,-0.7687,-0.7633,-0.7571,-0.7521,-0.7505,-0.7485,-0.7492,-0.7472,-0.7472,-0.747,-0.7468,-0.7476,-0.7489,-0.7489,-0.7477,-0.7477,-0.7477]},{"header":{"parameterUnit":"m.s-1","parameterCategory":1,"la1":30.2991,"la2":30.254,"lo1":-89.0895,"lo2":-89.0444,"dy":0.0017,"dx":0.0017,"nx":28,"ny":28,"refTime":"2025-02-11T03:00:00:Z","depth":0,"parameterNumber":3,"parameterNumberName":"V-component_of_WINDS"},"data":[0,0,0,0,0,0,0,0,0,0,0,0,0,0,0,0,0,0,0,0,0,0,0,0,0,0,0,0,0,0,0,0,0,0,0,0,0,0,0,0,0,0,0,0,0,0,0,0,0,0,0,0,0,0,0,0,0,0,3.6732,3.6733,0,3.6818,3.6819,3.682,3.6826,3.6825,3.6824,3.6823,3.6906,3.6909,3.6912,0,0,0,0,0,0,0,0,0,0,0,0,0,3.6568,3.6571,3.6732,3.6733,3.6734,3.6818,3.6819,3.6821,3.6826,3.6825,3.6824,3.6823,3.6905,3.6909,3.6913,0,0,0,0,0,0,0,0,0,0,0,0,0,3.6645,3.6572,3.6732,3.6747,3.675,3.6818,3.6819,3.6821,3.6826,3.6825,3.6823,3.6822,3.6904,3.6909,3.6913,3.6971,0,0,3.6928,3.693,0,0,0,0,0,0,0,0,3.664,3.6651,3.6744,3.6746,3.6749,3.681,3.6792,3.6871,3.6827,3.6797,3.6823,3.6821,3.6875,3.6882,3.6901,3.6975,3.6978,3.6928,3.6931,3.6933,3.6934,0,0,0,0,0,0,0,3.6635,3.6647,3.6766,3.6745,3.6748,3.6748,3.6758,3.6807,3.6843,3.6799,3.68,3.681,3.6876,3.6897,3.6903,3.698,3.6928,3.6932,3.6935,3.6937,3.7105,3.7106,0,0,0,0,0,0,3.6627,3.6643,3.6763,3.6769,3.669,3.6752,3.6763,3.6792,3.6842,3.6849,3.6812,3.681,3.6889,3.6898,3.6906,3.6978,3.6933,3.6937,3.694,3.7103,3.7105,3.7107,0,0,0,0,0,0,3.6624,3.6638,3.676,3.6706,3.6721,3.6757,3.6789,3.6794,3.6815,3.6852,3.6858,3.6826,3.6889,3.69,3.6955,3.6981,3.6939,3.6943,3.7101,3.7104,3.7106,3.7121,0,0,0,0,0,0,3.6619,3.6637,3.666,3.6707,3.6724,3.6809,3.6791,3.6797,3.6824,3.6823,3.6867,3.6873,3.6888,3.6948,3.696,3.6986,3.6947,3.7099,3.7102,3.7105,3.7119,3.7124,3.7128,0,0,0,0,0,3.6613,3.666,3.6661,3.6676,3.6755,3.6811,3.6821,3.6839,3.6826,3.6849,3.6872,3.6872,3.6976,3.6954,3.6967,3.6995,3.7098,3.7101,3.7105,3.7116,3.7123,3.7128,0,0,0,0,0,0,3.6614,3.6666,3.6669,3.6732,3.6767,3.6811,3.6841,3.6845,3.6883,3.6881,3.69,3.691,3.6965,3.6985,3.696,3.7054,3.7035,3.7042,3.7039,3.7046,3.705,3.7045,3.6951,0,0,0,0,0,3.6622,3.6664,3.6707,3.6759,3.6776,3.6806,3.6831,3.6842,3.6878,3.6893,3.692,3.6954,3.6995,3.7021,3.706,3.7121,3.7131,3.7147,3.7152,3.7155,3.7161,3.7195,3.7203,3.7119,3.7119,3.7119,0,0,3.6638,3.6671,3.6697,3.676,3.6788,3.6831,3.6818,3.6863,3.6895,3.6899,3.6954,3.6975,3.7014,3.7073,3.71,3.7092,3.7186,3.716,3.7163,3.7167,3.72,3.7208,3.7215,3.7122,3.7121,3.7121,0,0,3.6689,3.6719,3.6766,3.6795,3.6839,3.6859,3.687,3.6914,3.6929,3.6985,3.6989,3.7025,3.7094,3.7122,3.7145,3.7207,3.7208,3.7219,3.7245,3.7279,3.7285,3.7291,3.7314,3.7322,3.7225,3.7225,3.7225,0,3.6703,3.677,3.6789,3.6835,3.6863,3.687,3.6917,3.6943,3.6997,3.7015,3.7005,3.7092,3.7119,3.7185,3.72,3.7218,3.7231,3.7215,3.7283,3.7289,3.7295,3.7317,3.7326,3.7226,3.7226,3.7226,3.7225,0,3.6785,3.6831,3.6863,3.6917,3.6948,3.6994,3.7019,3.7047,3.7055,3.7075,3.7131,3.7164,3.721,3.7226,3.7233,3.7293,3.7286,3.7279,3.7261,3.7304,3.7325,3.7334,3.7227,3.7227,3.7227,3.7226,0,0,3.684,3.6905,3.6917,3.6942,3.6991,3.7026,3.7071,3.7118,3.7143,3.7179,3.7217,3.7276,3.727,3.7296,3.7307,3.7335,3.7383,3.7325,3.7326,3.7336,3.7451,3.7458,3.7467,3.7384,3.7385,3.7387,3.7449,0,3.6899,3.6983,3.7002,3.7074,3.7117,3.7123,3.7163,3.7197,3.7216,3.7253,3.7274,3.7316,3.7304,3.732,3.7349,3.7372,3.7407,3.7367,3.7419,3.7421,3.7411,3.7478,3.7485,3.7542,3.7457,3.7458,3.7459,0,3.6978,3.7019,3.7096,3.714,3.7158,3.7194,3.7239,3.7275,3.7312,3.7324,3.7354,3.7361,3.7408,3.7386,3.745,3.7423,3.7445,3.7459,3.7461,3.7468,3.7444,3.7488,3.7561,3.757,3.7472,3.7471,3.747,0,3.7013,3.7086,3.7142,3.7163,3.7215,3.724,3.7263,3.7299,3.7326,3.7364,3.7382,3.7424,3.7447,3.7479,3.7497,3.7479,3.756,3.754,3.7571,3.7571,3.7589,3.7588,3.7668,3.7601,3.76,3.76,3.76,0,3.7077,3.7124,3.7159,3.7193,3.7246,3.7266,3.7317,3.7339,3.7371,3.7409,3.7415,3.745,3.7472,3.7509,3.7523,3.7574,3.7584,3.7595,3.7598,3.7595,3.7594,3.7611,3.7608,3.7603,3.7602,3.7602,3.7601,0,3.7125,3.715,3.7212,3.7257,3.7269,3.7306,3.7343,3.7376,3.7396,3.7443,3.7456,3.7485,3.753,3.7551,3.7605,3.7614,3.7673,3.7673,3.7661,3.7663,3.7694,3.7691,3.7789,3.7803,3.7725,3.7725,3.7726,0,3.7165,3.7202,3.7251,3.7278,3.7302,3.7345,3.7373,3.7393,3.7422,3.7468,3.7495,3.754,3.7578,3.7648,3.7673,3.7715,3.7717,3.7748,3.7723,3.7719,3.7719,3.7717,3.7721,3.7753,3.7754,3.7754,3.7755,0,3.7234,3.7245,3.7286,3.7333,3.7367,3.7403,3.7439,3.746,3.7486,3.7517,3.7564,3.7593,3.765,3.7694,3.7738,3.7759,3.7761,3.7762,3.7772,3.777,3.7763,3.7769,3.7675,3.776,3.776,3.7759,3.7759,3.7759,3.728,3.7314,3.7355,3.7401,3.743,3.7463,3.7497,3.7521,3.7561,3.7611,3.7619,3.7669,3.7704,3.7763,3.7785,3.7824,3.7816,3.783,3.7834,3.7837,3.784,3.7755,3.7831,3.7831,3.7831,3.7831,3.7831,0,3.7351,3.7378,3.742,3.7471,3.7507,3.7507,3.7547,3.7576,3.7621,3.7655,3.7692,3.7745,3.7789,3.7817,3.7861,3.7886,3.7888,3.7897,3.7896,3.7901,3.7843,3.7831,3.7894,3.7894,3.7894,3.7894,3.7894,3.7894,3.7392,3.745,3.7465,3.7536,3.7562,3.7613,3.7635,3.7666,3.7693,3.7753,3.779,3.7809,3.7841,3.7886,3.7926,3.7933,3.7949,3.7958,3.7965,3.7911,3.7905,3.7898,3.7887,3.7961,3.7961,3.802,3.802,3.8021]}]]